Location: Bodham
(52.9000°N, 1.1667°E)
Time: 15:00:21
(UTC+00:00)

Cosmos 2112 Rocket - Pass Details

Date: 21 October 2025
Orbit: 753 x 782 km, 74.0° (Epoch: 13 November)

Event Time Altitude Azimuth Distance (km) Brightness Sun altitude
Rises 02:47:26 0° 337° (NNW) 3,250 7.3 -33.6°
Reaches altitude 10° 02:50:29 10° 354° (N) 2,315 6.7 -33.2°
Maximum altitude 02:54:18 20° 41° (NE) 1,721 6.4 -32.7°
Drops below altitude 10° 02:58:04 10° 88° (E) 2,293 7.2 -32.2°
Sets 03:01:04 0° 105° (ESE) 3,211 7.8 -31.8°
